GW7709 Weather Reports


time (UTC)temp
C
wind
direction
speed
KPH
gust
KPH
rain 1hr
cm
rain 24hr
cm
rain mn
cm
humidity
%
barometer
mb
20260906070331 25 72 1.6 1.6 0.00 0.00 0.00 80 1013.3
20260906065826 25 73 1.6 1.6 0.00 0.00 0.00 81 1013.7
20260906065321 25 79 1.6 1.6 0.00 0.00 0.00 81 1013.8
20260906064817 25 88 0.0 0.0 0.00 0.00 0.00 81 1013.5
20260906064313 25 88 0.0 0.0 0.00 0.00 0.00 80 1013.5
20260906063813 25 88 0.0 0.0 0.00 0.00 0.00 79 1013.5
20260906063308 25 88 1.6 1.6 0.00 0.00 0.00 79 1013.6
20260906062803 25 88 1.6 1.6 0.00 0.00 0.00 79 1013.6
20260906062305 25 88 0.0 0.0 0.00 0.00 0.00 79 1013.5
20260906061758 25 88 0.0 0.0 0.00 0.00 0.00 78 1013.6
20260906061254 25 88 1.6 1.6 0.00 0.00 0.00 78 1013.7
20260906060749 25 88 0.0 0.0 0.00 0.00 0.00 79 1013.4
20260906060247 25 88 0.0 0.0 0.00 0.00 0.00 80 1013.5
20260906055742 25 88 0.0 0.0 0.00 0.00 0.00 81 1013.2
20260906055237 25 88 0.0 0.0 0.00 0.00 0.00 80 1013.3
20260906054732 25 88 0.0 0.0 0.00 0.00 0.00 80 1013.0
20260906054228 25 88 0.0 0.0 0.00 0.00 0.00 80 1013.2
20260906053724 25 88 0.0 0.0 0.00 0.00 0.00 79 1013.2
20260906053220 25 88 0.0 0.0 0.00 0.00 0.00 78 1013.0
20260906052715 25 88 0.0 0.0 0.00 0.00 0.00 78 1013.2
20260906052211 25 88 0.0 0.0 0.00 0.00 0.00 78 1013.0
20260906051708 25 88 0.0 0.0 0.00 0.00 0.00 78 1013.0
20260906051207 25 88 0.0 0.0 0.00 0.00 0.00 78 1013.5
20260906050702 26 88 0.0 0.0 0.00 0.00 0.00 78 1013.4
20260906050157 26 88 0.0 0.0 0.00 0.00 0.00 78 1013.3
20260906045655 26 88 0.0 0.0 0.00 0.00 0.00 77 1013.4
20260906045151 26 88 0.0 0.0 0.00 0.00 0.00 76 1013.5
20260906044647 26 88 0.0 0.0 0.00 0.00 0.00 75 1013.6
20260906044142 26 88 0.0 0.0 0.00 0.00 0.00 76 1013.5
20260906043638 26 88 0.0 0.0 0.00 0.00 0.00 75 1013.7
20260906043134 26 88 0.0 0.0 0.00 0.00 0.00 76 1013.3
20260906042633 26 88 0.0 0.0 0.00 0.00 0.00 76 1013.5
20260906042127 26 88 0.0 0.0 0.00 0.00 0.00 75 1013.5
20260906041623 26 88 0.0 0.0 0.00 0.00 0.00 74 1013.4
20260906041118 26 88 0.0 0.0 0.00 0.00 0.00 73 1013.7
20260906040613 26 88 0.0 0.0 0.00 0.00 0.00 72 1013.8
20260906040109 26 88 0.0 0.0 0.00 0.00 0.00 72 1013.6
20260906035604 26 88 0.0 0.0 0.00 0.00 0.00 71 1013.6
20260906035100 26 88 0.0 0.0 0.00 0.00 0.00 71 1013.7
20260906034559 26 88 0.0 0.0 0.00 0.00 0.00 71 1013.7
20260906034054 26 87 1.6 1.6 0.00 0.00 0.00 70 1013.8
20260906033550 26 87 0.0 0.0 0.00 0.00 0.00 71 1013.9
20260906033045 26 87 0.0 0.0 0.00 0.00 0.00 70 1013.7
20260906032542 27 87 0.0 0.0 0.00 0.00 0.00 69 1013.6
20260906032036 27 87 0.0 0.0 0.00 0.00 0.00 69 1013.6
20260906031532 27 87 0.0 0.0 0.00 0.00 0.00 69 1013.7
20260906031027 26 86 0.0 0.0 0.00 0.00 0.00 70 1013.5
20260906030526 27 86 0.0 0.0 0.00 0.00 0.00 70 1013.7
20260906030026 27 86 0.0 0.0 0.00 0.00 0.00 69 1013.7
20260906025526 27 86 0.0 0.0 0.00 0.00 0.00 68 1013.8
20260906025024 27 86 0.0 0.0 0.00 0.00 0.00 68 1013.9
20260906024520 27 86 0.0 0.0 0.00 0.00 0.00 68 1013.7
20260906024019 27 86 0.0 0.0 0.00 0.00 0.00 68 1013.4
20260906023516 27 84 0.0 0.0 0.00 0.00 0.00 69 1013.4
20260906023011 27 48 0.0 0.0 0.00 0.00 0.00 70 1013.1
20260906022506 27 48 0.0 0.0 0.00 0.00 0.00 69 1013.3
20260906022001 27 48 0.0 0.0 0.00 0.00 0.00 69 1013.3
20260906021455 27 48 0.0 0.0 0.00 0.00 0.00 69 1013.5
20260906020950 27 48 0.0 0.0 0.00 0.00 0.00 69 1013.3
20260906020444 27 48 0.0 0.0 0.00 0.00 0.00 69 1013.3
20260906015944 27 48 0.0 0.0 0.00 0.00 0.00 68 1013.2
20260906015443 27 48 0.0 0.0 0.00 0.00 0.00 68 1013.2
20260906014943 27 48 0.0 0.0 0.00 0.00 0.00 68 1013.0
20260906014438 27 48 0.0 0.0 0.00 0.00 0.00 67 1013.0
20260906013934 28 48 0.0 0.0 0.00 0.00 0.00 67 1012.9
20260906013429 28 48 0.0 0.0 0.00 0.00 0.00 66 1012.6
20260906012925 28 48 0.0 1.6 0.00 0.00 0.00 66 1012.8
20260906012425 28 48 0.0 0.0 0.00 0.00 0.00 66 1012.6
20260906011924 28 48 0.0 0.0 0.00 0.00 0.00 65 1012.5
20260906011419 28 49 0.0 0.0 0.00 0.00 0.00 65 1012.8
20260906010915 28 56 1.6 1.6 0.00 0.00 0.00 65 1012.5
20260906010411 28 63 0.0 1.6 0.00 0.00 0.00 64 1012.5
20260906005906 28 64 0.0 0.0 0.00 0.00 0.00 64 1012.5
20260906005406 28 1 1.6 3.2 0.00 0.00 0.00 64 1012.5
20260906004905 28 351 3.2 3.2 0.00 0.00 0.00 63 1012.4
20260906004405 28 32 0.0 0.0 0.00 0.00 0.00 62 1012.5
20260906003900 29 32 0.0 0.0 0.00 0.00 0.00 62 1012.5
20260906003355 29 355 3.2 1.6 0.00 0.00 0.00 61 1012.4
20260906002851 29 344 1.6 1.6 0.00 0.00 0.00 60 1012.2
20260906002350 30 5 1.6 1.6 0.00 0.00 0.00 59 1012.4
20260906001846 30 23 1.6 1.6 0.00 0.00 0.00 58 1012.3
20260906001342 30 25 1.6 1.6 0.00 0.00 0.00 57 1012.3
20260906000836 30 56 1.6 1.6 0.00 0.00 0.00 56 1012.3
20260906000337 30 60 0.0 0.0 0.00 0.00 0.00 55 1012.2
20260905235836 30 62 0.0 0.0 0.00 0.00 0.00 55 1012.3
20260905235331 30 21 1.6 1.6 0.00 0.00 0.00 54 1012.5
20260905234827 30 48 0.0 0.0 0.00 0.00 0.00 54 1012.7
20260905234322 30 48 0.0 0.0 0.00 0.00 0.00 53 1012.5
20260905233817 30 1 0.0 0.0 0.00 0.00 0.00 53 1012.6
20260905233312 31 64 1.6 1.6 0.00 0.00 0.00 52 1012.4
20260905232810 31 70 0.0 0.0 0.00 0.00 0.00 51 1012.5
20260905232307 31 84 1.6 1.6 0.00 0.00 0.00 51 1012.7
20260905231803 31 126 0.0 0.0 0.00 0.00 0.00 51 1012.5
20260905231258 31 114 1.6 1.6 0.00 0.00 0.00 51 1012.3
20260905230754 31 59 0.0 0.0 0.00 0.00 0.00 50 1012.1
20260905230251 31 59 1.6 3.2 0.00 0.00 0.00 50 1011.9
20260905225751 31 59 1.6 1.6 0.00 0.00 0.00 49 1012.2
20260905225246 31 56 4.8 4.8 0.00 0.00 0.00 49 1012.2
20260905224746 31 17 0.0 0.0 0.00 0.00 0.00 50 1012.1
20260905224241 31 73 1.6 1.6 0.00 0.00 0.00 50 1012.1
20260905223737 31 66 1.6 3.2 0.00 0.00 0.00 49 1011.9
20260905223234 31 8 1.6 1.6 0.00 0.00 0.00 50 1012.1
20260905222729 31 3 0.0 0.0 0.00 0.00 0.00 50 1012.3
20260905222228 31 144 3.2 4.8 0.00 0.00 0.00 49 1012.3
20260905221724 31 47 6.4 6.4 0.00 0.00 0.00 49 1012.4
20260905221221 31 14 3.2 3.2 0.00 0.00 0.00 48 1012.3
20260905220717 32 45 1.6 1.6 0.00 0.00 0.00 48 1012.5
20260905220212 32 70 3.2 3.2 0.00 0.00 0.00 47 1012.7
20260905215712 32 40 1.6 1.6 0.00 0.00 0.00 47 1012.9
20260905215208 32 40 1.6 3.2 0.00 0.00 0.00 48 1012.8
20260905214704 32 40 4.8 4.8 0.00 0.00 0.00 48 1012.8
20260905214158 32 331 4.8 4.8 0.00 0.00 0.00 48 1012.8
20260905213654 32 331 4.8 6.4 0.00 0.00 0.00 48 1012.9
20260905213150 32 321 4.8 3.2 0.00 0.00 0.00 48 1012.8
20260905212645 32 51 3.2 6.4 0.00 0.00 0.00 49 1012.9
20260905212144 32 5 1.6 1.6 0.00 0.00 0.00 51 1013.0
20260905211638 32 285 4.8 6.4 0.00 0.00 0.00 52 1012.9
20260905211134 32 353 4.8 4.8 0.00 0.00 0.00 53 1012.8
20260905210631 31 24 3.2 4.8 0.00 0.00 0.00 54 1012.6
20260905210125 31 335 3.2 3.2 0.00 0.00 0.00 56 1012.9
20260905205624 31 10 8.0 9.7 0.00 0.00 0.00 55 1012.8
20260905205124 31 345 3.2 6.4 0.00 0.00 0.00 54 1012.8
20260905204623 31 348 4.8 4.8 0.00 0.00 0.00 54 1012.7
20260905204119 31 4 1.6 3.2 0.00 0.00 0.00 53 1012.6
20260905203619 31 15 6.4 6.4 0.00 0.00 0.00 54 1012.9
20260905203114 32 25 3.2 3.2 0.00 0.00 0.00 53 1012.8
20260905202610 32 50 9.7 11.3 0.00 0.00 0.00 52 1012.7
20260905202105 35 14 8.0 11.3 0.00 0.00 0.00 48 1012.7
20260905201601 35 28 6.4 6.4 0.00 0.00 0.00 43 1012.9
20260905201100 35 253 1.6 3.2 0.00 0.00 0.00 42 1012.8
20260905200556 35 256 3.2 3.2 0.00 0.00 0.00 42 1012.7
20260905200050 35 258 3.2 3.2 0.00 0.00 0.00 42 1012.6
20260905195550 34 264 1.6 1.6 0.00 0.00 0.00 44 1012.8
20260905195045 34 264 1.6 1.6 0.00 0.00 0.00 44 1013.0
20260905194544 33 330 1.6 1.6 0.00 0.00 0.00 47 1012.7
20260905194044 33 37 1.6 1.6 0.00 0.00 0.00 48 1013.0
20260905193539 33 37 1.6 1.6 0.00 0.00 0.00 48 1013.1
20260905193035 33 37 1.6 1.6 0.00 0.00 0.00 47 1012.9
20260905192529 32 38 1.6 1.6 0.00 0.00 0.00 50 1013.1
20260905192026 32 37 1.6 1.6 0.00 0.00 0.00 54 1013.0
20260905191524 32 31 1.6 1.6 0.00 0.00 0.00 52 1013.2
20260905191024 32 31 1.6 1.6 0.00 0.00 0.00 53 1013.3
20260905190521 32 63 1.6 1.6 0.00 0.00 0.00 54 1013.2
20260905190016 31 59 1.6 1.6 0.00 0.00 0.00 48 1013.4
20260905185516 31 340 0.0 1.6 0.00 0.00 0.00 51 1013.4
20260905185015 31 340 1.6 1.6 0.00 0.00 0.00 49 1013.3
20260905184510 31 346 1.6 1.6 0.00 0.00 0.00 55 1013.4
20260905184008 31 347 0.0 0.0 0.00 0.00 0.00 54 1013.4
20260905183503 31 347 3.2 3.2 0.00 0.00 0.00 52 1013.5
20260905183003 32 39 4.8 6.4 0.00 0.00 0.00 51 1013.7
20260905182502 34 299 6.4 11.3 0.00 0.00 0.00 40 1013.5
20260905181957 33 0 4.8 6.4 0.00 0.00 0.00 42 1013.5
20260905181452 34 351 9.7 14.5 0.00 0.00 0.00 45 1013.7
20260905180951 36 323 6.4 9.7 0.00 0.00 0.00 43 1013.8
20260905180446 36 48 6.4 9.7 0.00 0.00 0.00 42 1013.7
20260905175941 35 56 1.6 1.6 0.00 0.00 0.00 43 1013.7
20260905175441 35 27 3.2 3.2 0.00 0.00 0.00 42 1013.7
20260905174936 36 57 3.2 3.2 0.00 0.00 0.00 42 1013.5
20260905174432 36 16 1.6 3.2 0.00 0.00 0.00 41 1013.6
20260905173927 36 358 3.2 3.2 0.00 0.00 0.00 42 1013.7
20260905173424 36 108 1.6 1.6 0.00 0.00 0.00 43 1013.6
20260905172919 36 36 4.8 4.8 0.00 0.00 0.00 42 1013.9
20260905172416 36 61 1.6 1.6 0.00 0.00 0.00 42 1013.8
20260905171912 36 46 1.6 3.2 0.00 0.00 0.00 42 1013.9
20260905171409 36 45 4.8 4.8 0.00 0.00 0.00 41 1014.1
20260905170905 36 73 1.6 1.6 0.00 0.00 0.00 43 1013.9
20260905170401 36 349 1.6 1.6 0.00 0.00 0.00 42 1013.8
20260905165900 36 64 1.6 1.6 0.00 0.00 0.00 42 1014.1
20260905165355 36 17 4.8 6.4 0.00 0.00 0.00 43 1014.1
20260905164850 36 78 3.2 1.6 0.00 0.00 0.00 43 1014.5
20260905164345 36 26 1.6 1.6 0.00 0.00 0.00 45 1014.3
20260905163840 36 339 8.0 9.7 0.00 0.00 0.00 42 1014.5
20260905163336 36 12 1.6 1.6 0.00 0.00 0.00 46 1014.5
20260905162832 36 42 3.2 4.8 0.00 0.00 0.00 44 1014.7
20260905162332 36 58 0.0 0.0 0.00 0.00 0.00 46 1014.7
20260905161827 35 332 1.6 1.6 0.00 0.00 0.00 47 1014.7
20260905161326 35 346 0.0 0.0 0.00 0.00 0.00 49 1014.8
20260905160825 35 347 1.6 1.6 0.00 0.00 0.00 49 1014.9
20260905160319 35 65 3.2 3.2 0.00 0.00 0.00 48 1014.9
20260905155814 35 112 0.0 1.6 0.00 0.00 0.00 49 1014.9
20260905155313 35 107 0.0 0.0 0.00 0.00 0.00 50 1015.0
20260905154807 35 88 1.6 1.6 0.00 0.00 0.00 50 1014.9
20260905154302 35 49 1.6 1.6 0.00 0.00 0.00 51 1015.2
20260905153758 35 21 1.6 1.6 0.00 0.00 0.00 50 1015.1
20260905153254 35 62 3.2 3.2 0.00 0.00 0.00 50 1015.2
20260905152748 34 125 3.2 3.2 0.00 0.00 0.00 52 1015.2
20260905152248 34 42 0.0 0.0 0.00 0.00 0.00 52 1015.2
20260905151747 33 40 3.2 4.8 0.00 0.00 0.00 53 1015.3
20260905151244 33 6 0.0 0.0 0.00 0.00 0.00 54 1015.2
20260905150743 33 32 1.6 1.6 0.00 0.00 0.00 54 1015.3
20260905150243 33 33 1.6 0.0 0.00 0.00 0.00 56 1015.1
20260905145741 33 33 0.0 0.0 0.00 0.00 0.00 55 1015.3
20260905145236 32 22 1.6 1.6 0.00 0.00 0.00 56 1015.3
20260905144735 32 8 1.6 1.6 0.00 0.00 0.00 56 1015.4
20260905144230 32 9 1.6 1.6 0.00 0.00 0.00 58 1015.5
20260905143729 32 5 1.6 1.6 0.00 0.00 0.00 58 1015.5
20260905143229 31 45 1.6 1.6 0.00 0.00 0.00 59 1015.5
20260905142727 31 106 1.6 1.6 0.00 0.00 0.00 59 1015.6
20260905142222 31 69 0.0 0.0 0.00 0.00 0.00 62 1015.5
20260905141718 31 45 0.0 0.0 0.00 0.00 0.00 62 1015.6
20260905141214 30 50 0.0 0.0 0.00 0.00 0.00 62 1015.6
20260905140709 30 40 1.6 1.6 0.00 0.00 0.00 63 1015.6
20260905140203 30 36 1.6 1.6 0.00 0.00 0.00 63 1015.6
20260905135657 29 37 0.0 0.0 0.00 0.00 0.00 68 1015.8
20260905135154 28 37 0.0 0.0 0.00 0.00 0.00 69 1015.7
20260905134653 28 71 3.2 3.2 0.00 0.00 0.00 71 1015.7
20260905134152 28 59 0.0 0.0 0.00 0.00 0.00 72 1015.7
20260905133648 28 74 0.0 0.0 0.00 0.00 0.00 72 1015.7
20260905133147 28 78 1.6 1.6 0.00 0.00 0.00 72 1016.0
20260905132647 28 87 1.6 1.6 0.00 0.00 0.00 72 1015.9
20260905132142 28 87 0.0 0.0 0.00 0.00 0.00 74 1015.9
20260905131638 27 87 1.6 1.6 0.00 0.00 0.00 75 1016.1
20260905131138 27 87 1.6 1.6 0.00 0.00 0.00 75 1016.0
20260905130633 27 125 0.0 0.0 0.00 0.00 0.00 77 1016.0
20260905130133 27 126 0.0 0.0 0.00 0.00 0.00 76 1016.0
20260905125632 27 24 1.6 1.6 0.00 0.00 0.00 76 1016.1
20260905125128 27 24 0.0 0.0 0.00 0.00 0.00 77 1015.9
20260905124625 26 24 0.0 0.0 0.00 0.00 0.00 78 1015.9
20260905124120 26 24 1.6 1.6 0.00 0.00 0.00 79 1015.9
20260905123615 26 24 0.0 0.0 0.00 0.00 0.00 79 1016.0
20260905123113 26 24 1.6 1.6 0.00 0.00 0.00 79 1016.1
20260905122613 26 24 0.0 0.0 0.00 0.00 0.00 80 1015.8
20260905122112 26 24 0.0 0.0 0.00 0.00 0.00 80 1015.8
20260905121607 26 24 0.0 0.0 0.00 0.00 0.00 80 1015.7
20260905121103 26 24 0.0 0.0 0.00 0.00 0.00 80 1015.7
20260905120602 26 24 0.0 0.0 0.00 0.00 0.00 80 1015.8
20260905120057 26 24 0.0 0.0 0.00 0.00 0.00 81 1015.6
20260905115556 25 24 0.0 0.0 0.00 0.00 0.00 83 1015.6
20260905115051 25 24 0.0 0.0 0.00 0.00 0.00 84 1015.7
20260905114550 25 24 0.0 0.0 0.00 0.00 0.00 85 1015.5
20260905114050 25 24 0.0 0.0 0.00 0.00 0.00 86 1015.2
20260905113550 25 24 0.0 0.0 0.00 0.00 0.00 86 1015.3
20260905113045 25 24 0.0 0.0 0.00 0.00 0.00 86 1015.3
20260905112541 25 24 0.0 0.0 0.00 0.00 0.00 86 1015.4
20260905112036 25 24 0.0 0.0 0.00 0.00 0.00 86 1015.0
20260905111531 25 24 0.0 0.0 0.00 0.00 0.00 86 1015.1
20260905111030 25 24 0.0 0.0 0.00 0.00 0.00 86 1015.0
20260905110529 25 24 0.0 0.0 0.00 0.00 0.00 86 1014.8
20260905110025 25 24 0.0 0.0 0.00 0.00 0.00 86 1014.9
20260905105525 25 24 0.0 0.0 0.00 0.00 0.00 85 1014.8
20260905105024 25 24 0.0 0.0 0.00 0.00 0.00 85 1014.9
20260905104520 25 24 0.0 0.0 0.00 0.00 0.00 85 1014.8
20260905104019 25 24 0.0 0.0 0.00 0.00 0.00 84 1014.6
20260905103515 25 24 0.0 0.0 0.00 0.00 0.00 84 1014.7
20260905103011 25 24 0.0 0.0 0.00 0.00 0.00 84 1014.7
20260905102506 25 24 0.0 0.0 0.00 0.00 0.00 84 1014.8
20260905102002 25 24 0.0 0.0 0.00 0.00 0.00 84 1014.9
20260905101501 25 24 0.0 0.0 0.00 0.00 0.00 84 1014.8
20260905100959 25 24 0.0 0.0 0.00 0.00 0.00 84 1014.8
20260905100455 25 24 0.0 0.0 0.00 0.00 0.00 84 1014.8
20260905095954 25 24 0.0 0.0 0.00 0.00 0.00 84 1014.7
20260905095450 25 24 0.0 0.0 0.00 0.00 0.00 84 1014.7
20260905094945 25 24 0.0 0.0 0.00 0.00 0.00 84 1014.8
20260905094440 25 24 0.0 0.0 0.00 0.00 0.00 83 1014.7
20260905093939 25 24 0.0 0.0 0.00 0.00 0.00 83 1014.6
20260905093434 25 24 0.0 0.0 0.00 0.00 0.00 82 1014.4
20260905092930 25 24 0.0 0.0 0.00 0.00 0.00 83 1014.4
20260905092425 25 24 0.0 0.0 0.00 0.00 0.00 82 1014.4
20260905091921 25 24 0.0 0.0 0.00 0.00 0.00 82 1014.5
20260905091421 25 24 0.0 0.0 0.00 0.00 0.00 82 1014.4
20260905090920 25 24 0.0 0.0 0.00 0.00 0.00 82 1014.6
20260905090415 26 24 0.0 0.0 0.00 0.00 0.00 82 1014.5
20260905085915 26 24 0.0 0.0 0.00 0.00 0.00 81 1014.5
20260905085414 26 24 0.0 0.0 0.00 0.00 0.00 81 1014.5
20260905084910 26 23 0.0 0.0 0.00 0.00 0.00 81 1014.5
20260905084409 26 23 0.0 0.0 0.00 0.00 0.00 81 1014.3
20260905083904 26 23 0.0 0.0 0.00 0.00 0.00 81 1014.4
20260905083400 26 23 0.0 0.0 0.00 0.00 0.00 81 1014.3
20260905082855 26 23 0.0 0.0 0.00 0.00 0.00 80 1014.5
20260905082351 26 23 0.0 0.0 0.00 0.00 0.00 80 1014.3
20260905081846 26 23 0.0 0.0 0.00 0.00 0.00 80 1014.6
20260905081342 26 23 0.0 0.0 0.00 0.00 0.00 79 1014.4
20260905080840 26 23 0.0 0.0 0.00 0.00 0.00 79 1014.3
20260905080335 26 23 0.0 0.0 0.00 0.00 0.00 80 1014.3
20260905075834 26 23 0.0 0.0 0.00 0.00 0.00 80 1014.2
20260905075334 26 23 0.0 0.0 0.00 0.00 0.00 80 1014.3
20260905074833 26 23 0.0 0.0 0.00 0.00 0.00 79 1014.3
20260905074329 26 23 0.0 0.0 0.00 0.00 0.00 79 1014.3
20260905073824 26 346 0.0 0.0 0.00 0.00 0.00 79 1014.3
20260905073320 26 310 1.6 1.6 0.00 0.00 0.00 79 1014.2
20260905072820 26 310 1.6 1.6 0.00 0.00 0.00 79 1014.1
20260905072315 26 310 0.0 0.0 0.00 0.00 0.00 79 1014.2
20260905071811 26 310 0.0 0.0 0.00 0.00 0.00 78 1014.1
20260905071307 26 310 0.0 0.0 0.00 0.00 0.00 79 1013.9
20260905070802 26 310 0.0 0.0 0.00 0.00 0.00 79 1014.2